| time (UTC) | temp F | wind direction | speed knots | gust knots | rain 1hr in | rain 24hr in | rain mn in | humidity % | barometer mb |
| 20260504220058 | 80 | 171 | 1.7 | 9.6 | 0.00 | 0.00 | 0.00 | 59 | 1012.0 |
| 20260504214558 | 81 | 187 | 3.5 | 10.4 | 0.00 | 0.00 | 0.00 | 58 | 1012.0 |
| 20260504213057 | 82 | 192 | 3.5 | 10.4 | 0.00 | 0.00 | 0.00 | 56 | 1012.1 |
| 20260504211600 | 82 | 169 | 3.5 | 9.6 | 0.00 | 0.00 | 0.00 | 54 | 1012.2 |
| 20260504210109 | 83 | 172 | 2.6 | 7.8 | 0.00 | 0.00 | 0.00 | 54 | 1012.3 |
| 20260504204607 | 83 | 148 | 2.6 | 7.0 | 0.00 | 0.00 | 0.00 | 53 | 1012.6 |
| 20260504203110 | 83 | 139 | 2.6 | 9.6 | 0.00 | 0.00 | 0.00 | 52 | 1012.9 |
| 20260504201600 | 83 | 161 | 2.6 | 7.0 | 0.00 | 0.00 | 0.00 | 53 | 1013.2 |
| 20260504200100 | 83 | 223 | 3.5 | 8.7 | 0.00 | 0.00 | 0.00 | 52 | 1013.4 |
| 20260504194610 | 83 | 167 | 2.6 | 8.7 | 0.00 | 0.00 | 0.00 | 51 | 1013.6 |
| 20260504193107 | 84 | 191 | 4.3 | 8.7 | 0.00 | 0.00 | 0.00 | 51 | 1013.7 |
| 20260504191600 | 82 | 209 | 4.3 | 9.6 | 0.00 | 0.00 | 0.00 | 51 | 1014.0 |
| 20260504190129 | 82 | 153 | 1.7 | 9.6 | 0.00 | 0.00 | 0.00 | 52 | 1014.2 |
| 20260504184600 | 82 | 232 | 2.6 | 7.8 | 0.00 | 0.00 | 0.00 | 51 | 1014.3 |
| 20260504183101 | 81 | 198 | 4.3 | 12.2 | 0.00 | 0.00 | 0.00 | 52 | 1014.4 |
| 20260504181559 | 82 | 208 | 1.7 | 8.7 | 0.00 | 0.00 | 0.00 | 52 | 1014.5 |
| 20260504180059 | 82 | 187 | 4.3 | 13.0 | 0.00 | 0.00 | 0.00 | 51 | 1014.9 |
| 20260504174608 | 80 | 180 | 4.3 | 10.4 | 0.00 | 0.00 | 0.00 | 52 | 1015.1 |
| 20260504173101 | 80 | 136 | 5.2 | 12.2 | 0.00 | 0.00 | 0.00 | 54 | 1015.2 |
| 20260504171601 | 80 | 190 | 2.6 | 11.3 | 0.00 | 0.00 | 0.00 | 50 | 1015.6 |
| 20260504160107 | 77 | 125 | 2.6 | 12.2 | 0.00 | 0.00 | 0.00 | 60 | 1016.5 |
| 20260504081607 | 63 | 0 | 0.0 | 0.0 | 0.00 | 0.00 | 0.00 | 70 | 1016.9 |
| 20260504060126 | 65 | 0 | 0.0 | 3.5 | 0.00 | 0.00 | 0.00 | 65 | 1018.5 |
| 20260504050116 | 66 | 0 | 0.9 | 4.3 | 0.00 | 0.00 | 0.00 | 61 | 1018.9 |
| 20260504044604 | 67 | 0 | 0.0 | 1.7 | 0.00 | 0.00 | 0.00 | 61 | 1019.0 |
| 20260504043110 | 67 | 0 | 0.0 | 0.9 | 0.00 | 0.00 | 0.00 | 59 | 1018.9 |
| 20260504041600 | 68 | 0 | 0.0 | 5.2 | 0.00 | 0.00 | 0.00 | 59 | 1019.0 |
| 20260504040106 | 68 | 181 | 0.0 | 3.5 | 0.00 | 0.00 | 0.00 | 58 | 1018.9 |
| 20260504034602 | 68 | 0 | 0.0 | 4.3 | 0.00 | 0.00 | 0.00 | 57 | 1019.0 |
| 20260504033100 | 69 | 0 | 0.9 | 4.3 | 0.00 | 0.00 | 0.00 | 56 | 1019.0 |
| 20260504031605 | 69 | 0 | 1.7 | 6.1 | 0.00 | 0.00 | 0.00 | 55 | 1018.9 |
| 20260504030057 | 70 | 169 | 0.9 | 3.5 | 0.00 | 0.00 | 0.00 | 54 | 1018.7 |
| 20260504024601 | 70 | 188 | 1.7 | 5.2 | 0.00 | 0.00 | 0.00 | 53 | 1018.6 |
| 20260504023059 | 71 | 170 | 0.0 | 5.2 | 0.00 | 0.00 | 0.00 | 52 | 1018.7 |
| 20260504021601 | 71 | 150 | 0.9 | 6.1 | 0.00 | 0.00 | 0.00 | 51 | 1018.6 |
| 20260504020058 | 72 | 165 | 0.0 | 7.0 | 0.00 | 0.00 | 0.00 | 49 | 1018.7 |
| 20260504014603 | 72 | 0 | 1.7 | 5.2 | 0.00 | 0.00 | 0.00 | 48 | 1018.7 |
| 20260504013113 | 73 | 0 | 0.9 | 7.0 | 0.00 | 0.00 | 0.00 | 47 | 1018.5 |
| 20260504011559 | 74 | 168 | 0.9 | 5.2 | 0.00 | 0.00 | 0.00 | 45 | 1018.4 |
| 20260504010115 | 74 | 154 | 1.7 | 5.2 | 0.00 | 0.00 | 0.00 | 44 | 1018.5 |
| 20260504004600 | 75 | 164 | 2.6 | 7.8 | 0.00 | 0.00 | 0.00 | 43 | 1018.4 |
| 20260504003057 | 76 | 155 | 0.9 | 7.8 | 0.00 | 0.00 | 0.00 | 41 | 1018.3 |
| 20260504001603 | 77 | 185 | 1.7 | 7.8 | 0.00 | 0.00 | 0.00 | 40 | 1018.3 |
| 20260504000101 | 78 | 116 | 1.7 | 9.6 | 0.00 | 0.00 | 0.00 | 39 | 1018.4 |
| 20260503234601 | 79 | 181 | 2.6 | 10.4 | 0.00 | 0.00 | 0.00 | 39 | 1018.4 |
| 20260503233104 | 79 | 198 | 3.5 | 7.8 | 0.00 | 0.00 | 0.00 | 38 | 1018.5 |
| 20260503231558 | 80 | 138 | 1.7 | 7.0 | 0.00 | 0.00 | 0.00 | 37 | 1018.6 |
| 20260503224600 | 80 | 107 | 1.7 | 6.1 | 0.00 | 0.00 | 0.00 | 33 | 1018.7 |
| 20260503223100 | 80 | 174 | 2.6 | 6.1 | 0.00 | 0.00 | 0.00 | 32 | 1018.8 |
| 20260503221606 | 80 | 146 | 0.0 | 6.1 | 0.00 | 0.00 | 0.00 | 32 | 1019.2 |